English version Home page |
Updated on September 28, 2014 |
プロフィール
|
軌道要素Epoch 2001 Jan. 11.0 TT = JDT 2451920.5 T 2001 Jan. 30.44050 TT MPC q 2.3468281 (2000.0) P Q n 0.07283592 Peri. 189.34921 -0.99573673 +0.09125584 a 5.6785698 Node 355.81573 -0.06814386 -0.82598331 e 0.5867220 Incl. 10.61727 -0.06216729 -0.55625888 P 13.5 From 99 observations 2001 Jan. 21-2014 May 17, mean residual 0".6.
|
星図
|
光度変化m1 = 9.0 + 5 logΔ + 20.0 log r(t - 75)
|
軌道要素はM.P.E.C. 2014-K21に掲載されたものです。
|